Weather History for West Palm Beach, FL

Change the Weather History Date:

Thursday, October 4, 2012

  Actual Average Record
Temperature  
Mean Temperature 85 °F 80 °F  
Max Temperature 89 °F 87 °F 92 °F (1988)
Min Temperature 80 °F 74 °F 57 °F (1929)
Degree Days  
Heating Degree Days 0 0  
Month to date heating degree days 0 0  
Since 1 July heating degree days 0 0  
Cooling Degree Days 20 15  
Month to date cooling degree days 73 62  
Year to date cooling degree days 3490 3270  
Growing Degree Days 34 (Base 50)    
Moisture  
Dew Point 76 °F    
Average Humidity 76    
Maximum Humidity 88    
Minimum Humidity 64    
Precipitation  
Precipitation 0.16 in 0.20 in 2.88 in (1982)
Month to date precipitation 1.78 0.82  
Year to date precipitation 69.18 49.89  
Snow  
Snow 0.00 in - - ()
Month to date snowfall 0.0  
Since 1 July snowfall 0.0  
Since 1 September snowfall 0.0  
Snow Depth 0.00 in    
Sea Level Pressure  
Sea Level Pressure 30.12 in    
Wind  
Wind Speed 8 mph (East)    
Max Wind Speed 15 mph    
Max Gust Speed 18 mph    
Visibility 10 miles    
Events Rain    
T = Trace of Precipitation, MM = Missing Value Source: NWS Daily Summary

Daily Weather History Graph

Daily Weather History Graph

Search for Another Location

Airport:

Trip Planner

Search our weather history database for the weather conditions in past years. The results will help you decide how hot, cold, wet, or windy it might be!

Date:

Astronomy

Oct. 04, 2012 Rise Set
Actual Time 7:14 AM EDT 7:02 PM EDT
Civil Twilight 6:51 AM EDT 7:26 PM EDT
Nautical Twilight 6:24 AM EDT 7:52 PM EDT
Astronomical Twilight 5:57 AM EDT 8:19 PM EDT
Moon 10:02 PM EDT (10/4) 11:05 AM EDT (10/4)
Length of Visible Light 12h 34m
Length of Day
11h 48m
Waning Gibbous, 82% of the Moon is Illuminated
Oct 4
Waning Gibbous
Oct 8
Last Quarter
Oct 15
New
Oct 21
First Quarter
Oct 29
Full

Hourly Weather History & Observations

Time (EDT) Temp. Heat Index Dew Point Humidity Pressure Visibility Wind Dir Wind Speed Gust Speed Precip Events Conditions
12:53 AM 82.9 °F 91.8 °F 77.0 °F 82% 30.16 in 10.0 mi East 6.9 mph - N/A   Mostly Cloudy
1:53 AM 82.9 °F 91.8 °F 77.0 °F 82% 30.13 in 10.0 mi East 5.8 mph - N/A   Mostly Cloudy
2:53 AM 82.9 °F 89.4 °F 73.9 °F 74% 30.12 in 10.0 mi East 10.4 mph - N/A   Scattered Clouds
3:53 AM 81.0 °F 86.2 °F 73.9 °F 79% 30.11 in 10.0 mi East 8.1 mph - N/A   Scattered Clouds
4:53 AM 81.0 °F 86.2 °F 73.9 °F 79% 30.11 in 10.0 mi East 6.9 mph - N/A   Scattered Clouds
5:53 AM 81.0 °F 87.9 °F 77.0 °F 88% 30.11 in 10.0 mi East 11.5 mph - 0.00 in Rain Light Rain
6:53 AM 81.0 °F 86.7 °F 75.0 °F 82% 30.12 in 10.0 mi East 11.5 mph - 0.16 in   Mostly Cloudy
7:53 AM 81.0 °F 87.3 °F 75.9 °F 85% 30.12 in 10.0 mi East 4.6 mph - N/A   Mostly Cloudy
8:53 AM 82.9 °F 92.8 °F 78.1 °F 85% 30.14 in 10.0 mi East 8.1 mph - N/A   Scattered Clouds
9:53 AM 86.0 °F 96.9 °F 77.0 °F 74% 30.15 in 10.0 mi ESE 11.5 mph - N/A   Scattered Clouds
10:40 AM 86.0 °F 96.9 °F 77.0 °F 74% 30.15 in 10.0 mi SE 10.4 mph - N/A   Mostly Cloudy
10:53 AM 86.0 °F 96.9 °F 77.0 °F 74% 30.15 in 10.0 mi East 11.5 mph - N/A   Mostly Cloudy
11:45 AM 87.8 °F 97.6 °F 75.2 °F 66% 30.15 in 10.0 mi East 10.4 mph - N/A   Mostly Cloudy
11:53 AM 87.1 °F 96.3 °F 75.0 °F 67% 30.15 in 10.0 mi East 8.1 mph - N/A   Mostly Cloudy
12:13 PM 87.8 °F 97.6 °F 75.2 °F 66% 30.15 in 10.0 mi SE 10.4 mph - N/A   Mostly Cloudy
12:53 PM 89.1 °F 99.1 °F 75.0 °F 63% 30.14 in 10.0 mi ESE 10.4 mph - N/A   Mostly Cloudy
1:53 PM 88.0 °F 97.5 °F 75.0 °F 65% 30.12 in 10.0 mi ESE 10.4 mph - N/A   Mostly Cloudy
2:40 PM 87.8 °F 97.6 °F 75.2 °F 66% 30.10 in 10.0 mi ESE 11.5 mph - N/A   Mostly Cloudy
2:53 PM 88.0 °F 98.5 °F 75.9 °F 67% 30.09 in 10.0 mi ESE 11.5 mph - N/A   Mostly Cloudy
3:53 PM 88.0 °F 97.5 °F 75.0 °F 65% 30.08 in 10.0 mi East 11.5 mph - N/A   Scattered Clouds
4:53 PM 86.0 °F 95.1 °F 75.0 °F 70% 30.07 in 10.0 mi East 11.5 mph - N/A   Mostly Cloudy
5:53 PM 84.9 °F 94.1 °F 75.9 °F 74% 30.08 in 10.0 mi East 8.1 mph - N/A   Mostly Cloudy
6:53 PM 84.0 °F 92.6 °F 75.9 °F 76% 30.07 in 10.0 mi ENE 6.9 mph - N/A   Mostly Cloudy
7:53 PM 84.0 °F 92.6 °F 75.9 °F 76% 30.09 in 10.0 mi NE 5.8 mph - N/A   Mostly Cloudy
8:53 PM 84.0 °F 92.6 °F 75.9 °F 76% 30.11 in 10.0 mi ENE 6.9 mph - N/A   Mostly Cloudy
9:53 PM 82.9 °F 90.8 °F 75.9 °F 79% 30.12 in 10.0 mi NNE 3.5 mph - N/A   Scattered Clouds
10:53 PM 82.9 °F 90.8 °F 75.9 °F 79% 30.12 in 10.0 mi ENE 5.8 mph - N/A   Scattered Clouds
11:53 PM 82.9 °F 90.2 °F 75.0 °F 77% 30.10 in 10.0 mi East 6.9 mph - N/A   Scattered Clouds